ROMMA est une association bénévole à but non lucratif. Votre soutien est indispensable : ADHERER à ROMMA ou FAIRE un DON

Chambon - (38, Isère)

Oisans (2460 m)   Longitude: 06° 10' 42" E   Latitude: 45° 01' 32" N Station partenaire n°803
 

Détail journalier du     <<     >>

Température Humidité Vent Dir Rafale Dir. rafale Neige 1 Neige 2
Heure (°C) (%) (km/h) (km/h) (cm) (cm)
01:00 6.77911NNE19NNE71
02:00 6.0825N14N91
03:00 5.9813SSE8SSO101
04:00 6.5698NNE17NNE81
05:00 5.9675NNE14NNE91
06:00 5.9613ENE6S82
07:00 5.5632NE7NE82
08:00 7.4543SO9SO01
09:00 9.4479NNE18NE41
10:00 10.2487NE16NE11
11:00 11.2493NNE10NNE21
12:00 12.2473NNE11NE21
13:00 13.1452NNE16NNE21
14:00 13.3454NNE18ONO32
15:00 13.5456O20O31
16:00 13.54614OSO29OSO42
17:00 13.95117OSO29OSO32
18:00 13.46019OSO32OSO42
19:00 12.46821OSO34O42
20:00 11.47221O33O41
21:00 9.77915OSO26OSO41
22:00 8.9829OSO14OSO51
23:00 8.4846OSO11OSO61
minuit 8.4793SO6SO60

Graphique du 03-08-2019

 

Serveur OMMA